Location: Warszawa
(52.2322°N, 21.0083°E)
Time: 01:41:00
(UTC+01:00)

ISS - Visible Passes

Search period start: 23 March 2019 00:00
Search period end: 02 April 2019 01:00
Orbit: 406 x 411 km, 51.6° (Epoch: 23 March)

Date Brightness Start Highest point End Pass type
(mag) Time Alt. Az. Time Alt. Az. Time Alt. Az.
23 Mar -2.1 18:48:52 10° S 18:51:07 17° SE 18:52:25 14° ESE visible
23 Mar -1.7 20:23:58 10° WSW 20:25:12 21° SW 20:25:12 21° SW visible
24 Mar -3.4 19:33:05 10° SW 19:36:13 41° SSE 19:36:39 38° SE visible
24 Mar -0.6 21:09:19 10° W 21:09:24 11° W 21:09:24 11° W visible
25 Mar -2.8 18:42:19 10° SW 18:45:15 30° SSE 18:47:57 11° E visible
25 Mar -3.0 20:18:15 10° WSW 20:20:42 45° WSW 20:20:42 45° WSW visible
26 Mar -3.8 19:27:13 10° WSW 19:30:30 62° SSE 19:31:52 31° E visible
26 Mar -1.2 21:03:41 10° W 21:04:36 17° W 21:04:36 17° W visible
27 Mar -3.4 18:36:15 10° SW 18:39:27 48° SSE 18:42:39 10° E visible
27 Mar -3.8 20:12:35 10° W 20:15:40 75° WSW 20:15:40 75° WSW visible
28 Mar -3.9 19:21:28 10° W 19:24:47 79° S 19:26:40 23° E visible
28 Mar -1.6 20:58:01 10° W 20:59:24 23° W 20:59:24 23° W visible
29 Mar -4.0 20:06:52 10° W 20:10:11 77° S 20:10:20 74° SSE visible
30 Mar -3.9 19:15:44 10° W 19:19:03 82° S 19:21:14 20° E visible
30 Mar -1.8 20:52:19 10° W 20:53:57 25° W 20:53:57 25° W visible
31 Mar -3.7 21:01:08 10° W 21:04:24 58° SSW 21:04:50 52° SSE visible
01 Apr -3.8 20:09:58 10° W 20:13:16 72° S 20:15:41 17° ESE visible
01 Apr -1.8 21:46:40 10° W 21:48:25 22° WSW 21:48:25 22° WSW visible
